Glenwood Springs, CO

12:39 PM MST on February 06, 2016 (GMT -0700)
Sunlight Mountain

Weather History for K5SM - January, 2014

Change the Weather History Date:

Monday, January 27, 2014

  Actual Average (KRIL) Record (KRIL)
Temperature  
Mean Temperature 22 °F 26 °F  
Max Temperature 28 °F 37 °F 60 °F (1934)
Min Temperature 17 °F 14 °F -19 °F (1937)
Degree Days  
Heating Degree Days 42 39  
Month to date heating degree days 1114  
Since 1 July heating degree days 3878  
Cooling Degree Days 0 0  
Month to date cooling degree days 0  
Year to date cooling degree days 0  
Moisture  
Dew Point 15 °F    
Average Humidity 74    
Maximum Humidity 93    
Minimum Humidity 63    
Precipitation  
Precipitation 0.00 in 0.01 in 1.30 in (1978)
Month to date precipitation 0.73  
Year to date precipitation 0.73  
Sea Level Pressure  
Sea Level Pressure 29.94 in    
Wind  
Wind Speed 2 mph (WSW)    
Max Wind Speed 13 mph    
Max Gust Speed 25 mph    
Visibility 7 miles    
Events Fog , Snow    
T = Trace of Precipitation, MM = Missing Value Source: NWS Daily Summary

Daily Weather History Graph

Daily Weather History Graph

Search for Another Location

Airport or City:

Trip Planner

Search our weather history database for the weather conditions in past years. The results will help you decide how hot, cold, wet, or windy it might be!

Date:

Astronomy

Jan. 27, 2014 Rise Set
Actual Time 7:20 AM MST 5:24 PM MST
Civil Twilight 6:52 AM MST 5:52 PM MST
Nautical Twilight 6:19 AM MST 6:25 PM MST
Astronomical Twilight 5:48 AM MST 6:56 PM MST
Moon 4:05 AM MST (1/27) 2:13 PM MST (1/27)
Length of Visible Light 11h 00m
Length of Day
10h 03m
Waning Crescent, 14% of the Moon is Illuminated
Jan 27
Waning Crescent
Jan 30
New
Feb 6
First Quarter
Feb 14
Full
Feb 22
Last Quarter

Hourly Weather History & Observations

Time (MST) Temp. Windchill Dew Point Humidity Pressure Visibility Wind Dir Wind Speed Gust Speed Precip Events Conditions
12:01 AM 21.2 °F - 14.0 °F 74% 30.02 in 10.0 mi Calm Calm - N/A   Clear
12:20 AM 21.2 °F - 12.2 °F 68% 30.02 in 10.0 mi Calm Calm - N/A   Clear
12:41 AM 21.2 °F 16.4 °F 12.2 °F 68% 30.02 in 10.0 mi SW 3.5 mph - N/A   Scattered Clouds
1:01 AM 21.2 °F 16.4 °F 12.2 °F 68% 30.00 in 10.0 mi SSW 3.5 mph - N/A   Scattered Clouds
1:21 AM 21.2 °F 16.4 °F 12.2 °F 68% 30.00 in 10.0 mi SSW 3.5 mph - N/A   Scattered Clouds
1:41 AM 21.2 °F 16.4 °F 12.2 °F 68% 30.00 in 10.0 mi SW 3.5 mph - N/A   Scattered Clouds
2:01 AM 21.2 °F 14.9 °F 12.2 °F 68% 30.00 in 10.0 mi SW 4.6 mph - N/A   Mostly Cloudy
2:20 AM 21.2 °F 14.9 °F 12.2 °F 68% 30.00 in 10.0 mi SW 4.6 mph - N/A   Mostly Cloudy
2:41 AM 21.2 °F 16.4 °F 12.2 °F 68% 30.00 in 10.0 mi SSW 3.5 mph - N/A   Overcast
3:01 AM 21.2 °F - 12.2 °F 68% 30.00 in 10.0 mi Calm Calm - N/A   Overcast
3:21 AM 21.2 °F - 12.2 °F 68% 30.00 in 10.0 mi Calm Calm - N/A   Overcast
3:41 AM 21.2 °F 16.4 °F 12.2 °F 68% 30.00 in 10.0 mi SW 3.5 mph - N/A   Overcast
4:00 AM 21.2 °F - 12.2 °F 68% 29.98 in 10.0 mi Calm Calm - N/A   Overcast
4:21 AM 21.2 °F - 12.2 °F 68% 29.96 in 10.0 mi Calm Calm - N/A   Mostly Cloudy
4:40 AM 19.4 °F 14.3 °F 10.4 °F 68% 29.96 in 10.0 mi SW 3.5 mph - N/A   Scattered Clouds
5:01 AM 19.4 °F 14.3 °F 10.4 °F 68% 29.96 in 10.0 mi SW 3.5 mph - N/A   Mostly Cloudy
5:21 AM 21.2 °F 14.9 °F 10.4 °F 63% 29.95 in 10.0 mi SW 4.6 mph - N/A   Overcast
5:41 AM 21.2 °F 16.4 °F 10.4 °F 63% 29.95 in 10.0 mi SSW 3.5 mph - N/A   Overcast
6:02 AM 21.2 °F 16.4 °F 10.4 °F 63% 29.94 in 10.0 mi SW 3.5 mph - N/A   Mostly Cloudy
6:21 AM 19.4 °F - 10.4 °F 68% 29.95 in 10.0 mi Calm Calm - N/A   Scattered Clouds
6:41 AM 19.4 °F - 10.4 °F 68% 29.95 in 10.0 mi Calm Calm - N/A   Scattered Clouds
7:02 AM 19.4 °F - 10.4 °F 68% 29.95 in 10.0 mi Calm Calm - N/A   Scattered Clouds
7:21 AM 19.4 °F - 10.4 °F 68% 29.95 in 10.0 mi Calm Calm - N/A   Clear
7:42 AM 19.4 °F - 10.4 °F 68% 29.96 in 10.0 mi Calm Calm - N/A   Clear
8:01 AM 19.4 °F - 10.4 °F 68% 29.96 in 10.0 mi Calm Calm - N/A   Clear
8:22 AM 19.4 °F 14.3 °F 10.4 °F 68% 29.96 in 10.0 mi SSW 3.5 mph - N/A   Clear
8:38 AM 19.4 °F - 12.2 °F 74% 29.97 in 10.0 mi Calm Calm - N/A   Clear
9:01 AM 19.4 °F - 12.2 °F 74% 29.97 in 10.0 mi Calm Calm - N/A   Clear
9:17 AM 21.2 °F - 12.2 °F 68% 29.98 in 10.0 mi Calm Calm - N/A   Clear
9:40 AM 21.2 °F - 14.0 °F 74% 29.98 in 10.0 mi Calm Calm - N/A   Scattered Clouds
10:00 AM 23.0 °F - 14.0 °F 68% 29.98 in 10.0 mi Calm Calm - N/A   Mostly Cloudy
10:15 AM 24.8 °F - 14.0 °F 64% 29.98 in 10.0 mi Calm Calm - N/A   Scattered Clouds
10:42 AM 24.8 °F 19.1 °F 14.0 °F 64% 29.98 in 10.0 mi SW 4.6 mph - N/A   Mostly Cloudy
11:02 AM 24.8 °F - 14.0 °F 64% 29.98 in 10.0 mi Calm Calm - N/A   Scattered Clouds
11:21 AM 24.8 °F - 14.0 °F 64% 29.96 in 10.0 mi Calm Calm - N/A   Mostly Cloudy
11:41 AM 26.6 °F - 15.8 °F 64% 29.95 in 10.0 mi Calm Calm - N/A   Overcast
12:02 PM 26.6 °F - 15.8 °F 64% 29.95 in 10.0 mi Calm Calm - N/A   Overcast
12:21 PM 26.6 °F - 15.8 °F 64% 29.94 in 10.0 mi Calm Calm - N/A   Overcast
12:42 PM 24.8 °F - 15.8 °F 69% 29.93 in 7.0 mi Calm Calm - N/A   Overcast
1:02 PM 26.6 °F 22.6 °F 17.6 °F 69% 29.91 in 4.0 mi SW 3.5 mph - N/A Snow Light Snow
1:22 PM 28.4 °F 23.3 °F 17.6 °F 64% 29.90 in 10.0 mi SW 4.6 mph - N/A   Overcast
1:42 PM 28.4 °F 23.3 °F 17.6 °F 64% 29.90 in 10.0 mi SW 4.6 mph - N/A   Overcast
2:02 PM 28.4 °F 23.3 °F 17.6 °F 64% 29.89 in 10.0 mi WSW 4.6 mph - N/A   Overcast
2:22 PM 28.4 °F 24.6 °F 17.6 °F 64% 29.88 in 10.0 mi WSW 3.5 mph - N/A   Overcast
2:42 PM 26.6 °F 19.1 °F 17.6 °F 69% 29.87 in 10.0 mi SW 6.9 mph - N/A   Overcast
3:02 PM 24.8 °F - 17.6 °F 74% 29.87 in 10.0 mi Calm Calm - N/A   Overcast
3:22 PM 23.0 °F 18.4 °F 17.6 °F 80% 29.87 in 4.0 mi SW 3.5 mph - N/A Snow Light Snow
3:42 PM 23.0 °F 15.8 °F 19.4 °F 86% 29.87 in 0.8 mi SW 5.8 mph - N/A Snow Light Snow
4:02 PM 23.0 °F - 19.4 °F 86% 29.87 in 0.5 mi Calm Calm - N/A Snow Light Snow
4:22 PM 21.2 °F 16.4 °F 19.4 °F 93% 29.86 in 0.2 mi SW 3.5 mph - N/A Snow Snow
4:42 PM 21.2 °F - 19.4 °F 93% 29.86 in 1.2 mi Calm Calm - N/A Snow Light Snow
5:02 PM 21.2 °F - 19.4 °F 93% 29.86 in 2.0 mi Calm Calm - N/A Snow Light Snow
5:22 PM 21.2 °F - 19.4 °F 93% 29.86 in 3.0 mi Calm Calm - N/A Snow Light Snow
5:42 PM 21.2 °F 16.4 °F 19.4 °F 93% 29.85 in 5.0 mi SW 3.5 mph - N/A Snow Light Snow
6:02 PM 21.2 °F 16.4 °F 19.4 °F 93% 29.86 in 2.5 mi WSW 3.5 mph - N/A Snow Light Snow
6:22 PM 21.2 °F 13.6 °F 19.4 °F 93% 29.87 in 0.5 mi West 5.8 mph - N/A Snow Snow
6:42 PM 21.2 °F 14.9 °F 19.4 °F 93% 29.89 in 0.2 mi West 4.6 mph 17.3 mph N/A Snow Heavy Snow
7:02 PM 21.2 °F 10.9 °F 19.4 °F 93% 29.89 in 0.2 mi West 9.2 mph - N/A Snow Heavy Snow
7:22 PM 19.4 °F 9.5 °F 17.6 °F 93% 29.91 in 0.2 mi WNW 8.1 mph - N/A Snow Heavy Snow
7:42 PM 19.4 °F 9.5 °F 17.6 °F 93% 29.92 in 0.2 mi West 8.1 mph - N/A Snow Heavy Snow
8:02 PM 17.6 °F 9.3 °F 15.8 °F 93% 29.92 in 0.2 mi West 5.8 mph 20.7 mph N/A Snow Light Snow
8:22 PM 17.6 °F 8.2 °F 14.0 °F 86% 29.93 in 0.5 mi West 6.9 mph 21.9 mph N/A Fog Light Freezing Fog
8:41 PM 17.6 °F 4.3 °F 14.0 °F 86% 29.94 in 0.8 mi WNW 12.7 mph 25.3 mph N/A Snow Light Snow
9:01 PM - - - N/A% 29.94 in 1.0 mi West 8.1 mph 21.9 mph N/A   Unknown
9:21 PM - - - N/A% 29.94 in 2.0 mi West 4.6 mph - N/A   Overcast
9:41 PM - - - N/A% 29.95 in 7.0 mi West 4.6 mph - N/A   Overcast
10:01 PM - - - N/A% 29.94 in 7.0 mi WSW 5.8 mph - N/A   Overcast
10:21 PM - - - N/A% 29.94 in 5.0 mi WSW 3.5 mph - N/A   Haze
10:41 PM - - - N/A% 29.95 in 7.0 mi West 6.9 mph - N/A   Overcast
11:01 PM - - - N/A% 29.95 in 5.0 mi WSW 3.5 mph - N/A   Haze
11:21 PM - - - N/A% 29.95 in 5.0 mi NW 4.6 mph - N/A   Haze
11:41 PM - - - N/A% 29.95 in 5.0 mi West 3.5 mph - N/A   Unknown